Torna al catalogo

HULIANWANG DIGUI-15

AttivoComunicazioniLEO
NORAD 62975·PAYLOAD·🇨🇳 China

Lanciato Feb 11, 2025 da Wenchang Space Launch Site

Loading…

Prossimi Passaggi (prossime 24 ore)

TLE

AggiornatoSource: Space-Track

Epoca: Sep 14, 2026, 12:45 UTC

1 62975U 25030E   26257.53181991 -.00000092  00000-0  68694-4 0  9997
2 62975  50.0020 275.3068 0000356  35.6486 324.4410 13.29327015 77741

Traccia HULIANWANG DIGUI-15 in tempo reale con AllMySat

Download on the App Store